STARLINK-32457, 61717

Orbit data source: Space-Track

STARLINK-32457, 61717 is a payload satellite owned by SpaceX/Seattle (US) in LEO that was launched on Wed, 30 Oct 2024 UTC via an FALCON 9 launch vehicle from the Air Force Eastern Test Range (AFETR). Payload-class satellites include a variety of spacecraft equipped with specific instruments for various scientific and technological missions. These include communications satellites like Starlink; space stations such as the ISS; scientific satellites like the Hubble; Earth observation satellites from companies like Planet Labs, Umbra, and HawkEye 360; GPS; miniature CubeSats for education and research; and military/defense satellites.

Loading next visibility...
Identifier
61717, 2024-196L
Orbit
LEO
Last TLE update
13 hours ago
Origin
Manufacturer
SpaceX/Seattle
Mission
Operational Commercial Communications
Bus & Motor
STARLINK V2M, Unknown motor
Mass
730 kg wet, ~700 kg dry
Launch date (UTC)
2024-10-30 (8 months ago)
Launch vehicle
FALCON 9
Launch site
Air Force Eastern Test Range (AFETR)
Object type
Payload
Rocket body
Debris
Shape & HBR
Box + 2 Pan, 29 m
Radar Cross Section
36.964 m², Large (>1 m²)

Expand to show TLE details & history

TLE from 13 hours ago
0 STARLINK-32457
1 61717U 24196L   25181.73796974 -.00000216  00000-0  48131-5 0  9995
2 61717  53.1590 191.4882 0001046  87.7344 272.3776 15.30186690 38581
Epoch: 2025-06-30T17:42Z
TLE epoch observation values (Epoch: 2025-06-30T17:42:40.585Z)
Latitude
-0.00006°
Longitude
6.77558°
Altitude
476.125 km
Speed
7.629 km/s
True Right ascension
12h 45m 57s
True Declination
0° 00' 00"
Sunlit
Object was in daylight at epoch
Visualization orbit readout
Latitude
41.63212°
Longitude
45.77263°
Altitude
478.596 km
Speed
7.632 km/s
Apparent Right ascension
10h 58m 48s
Apparent Declination
7° 25' 01"
Sunlit
Object is in daylight
Visualization observer readout
Local Sidereal Time
18:07:28
Azimuth
286.844° WNW
Elevation
-8.145°
Doppler factor
1
Orbital elements
Apogee altitude
476.228 km
Perigee altitude
474.795 km
Semi-major axis
6,853.648 km
Eccentricity
0.0001
Inclination
53.159°
RAAN
191.4882°
Arg. of periapsis
87.7344°
True anomaly
Unknown
Mean anomaly
272.3776°
Eccentric anomaly
Unknown
Mean motion
3.82526 °/min
Orbital period
94.11 mins
BSTAR
0.0000048131
Loading maneuver chart data...
Loading SW <> Apogee altitude chart data...
Loading historical data...
Loading historical data...
Loading historical data...
Loading historical data...
Loading historical data...
Loading historical data...
Loading historical data...

STARLINK-32457 Visibility forecast

Observer location: undefined°, undefined°

Span
Click to sort rows by Start time (UTC) header in descending order
Start Az.
Max El. time (UTC)
Max El. Az.
Max El.
End time (UTC)
End Az.
5 mins2025-07-01 09:53:40.699Z331.201° NNW2025-07-01 09:55:40.699Z61.104° ENE37.861°2025-07-01 09:58:40.699Z114.012° SE
5 mins2025-07-02 02:48:40.699Z205.516° SW2025-07-02 02:50:40.699Z146.399° SSE38.604°2025-07-02 02:53:40.699Z61.317° ENE
4 mins2025-07-02 04:27:40.699Z302.401° NW2025-07-02 04:28:40.699Z326.317° NNW21.82°2025-07-02 04:31:40.699Z26.202° NE
|